Change the Weather History Date:

Saturday, April 26, 2014

  Actual Average Record
Temperature  
Mean Temperature 53 °F -  
Max Temperature 61 °F 61 °F 69 °F (2004)
Min Temperature 45 °F 45 °F 41 °F (2013)
Degree Days  
Heating Degree Days 12    
Growing Degree Days 3 (Base 50)    
Moisture  
Dew Point 44 °F    
Average Humidity 70    
Maximum Humidity 100    
Minimum Humidity 36    
Precipitation  
Precipitation 0.04 in - - ()
Sea Level Pressure  
Sea Level Pressure 29.66 in    
Wind  
Wind Speed 10 mph ()    
Max Wind Speed 17 mph    
Max Gust Speed 26 mph    
Visibility 8.0 miles    
Events Rain    
Averages and records for this station are not official NWS values.
T = Trace of Precipitation, MM = Missing Value Source: Averaged Metar Reports

Daily Weather History Graph

Daily Weather History Graph

Search for Another Location

Airport or City:

Trip Planner

Search our weather history database for the weather conditions in past years. The results will help you decide how hot, cold, wet, or windy it might be!

Date:

Astronomy

Apr. 26, 2014 Rise Set
Actual Time 5:43 AM BST 8:16 PM BST
Civil Twilight 5:06 AM BST 8:54 PM BST
Nautical Twilight 4:18 AM BST 9:41 PM BST
Astronomical Twilight 3:22 AM BST 10:39 PM BST
Moon 4:22 AM BST (4/26) 5:09 PM BST (4/26)
Length of Visible Light 15h 47m
Length of Day
14h 33m
Waning Crescent, 9% of the Moon is Illuminated
Apr 26
Waning Crescent
Apr 29
New
May 7
First Quarter
May 14
Full
May 21
Last Quarter

Hourly Weather History & Observations

Time (BST) Temp. Windchill Dew Point Humidity Pressure Visibility Wind Dir Wind Speed Gust Speed Precip Events Conditions
12:00 AM 47 °F - 45 °F 92% 29.80 in 4 mi SSE 4.6 mph - -  
12:50 AM 46.4 °F 43.5 °F 44.6 °F 93% 29.77 in 4.3 mi South 5.8 mph - N/A   Unknown
1:00 AM 46 °F - 44 °F 91% 29.78 in 4 mi South 5.8 mph - -  
1:50 AM 46.4 °F 42.9 °F 44.6 °F 93% 29.74 in - SSE 6.9 mph - N/A   Unknown
2:00 AM 46 °F - 45 °F 93% 29.76 in 3 mi SSE 6.9 mph - -  
2:50 AM 46.4 °F 42.4 °F 46.4 °F 100% 29.71 in 3.1 mi SSE 8.1 mph - N/A   Mostly Cloudy
3:00 AM 47 °F - 46 °F 93% 29.74 in 3 mi SSE 8.1 mph - -   Mostly Cloudy
3:50 AM 48.2 °F - 46.4 °F 93% 29.71 in 6.2 mi South 8.1 mph - N/A   Overcast
4:00 AM 49 °F - 46 °F 87% 29.72 in 10 mi South 8.1 mph - -   Overcast
4:50 AM 50.0 °F - 44.6 °F 82% 29.68 in 6.2 mi SSE 12.7 mph - N/A   Overcast
5:00 AM 49 °F - 45 °F 82% 29.69 in 17 mi SSE 12.7 mph - -   Overcast
5:50 AM 50.0 °F - 46.4 °F 87% 29.65 in 6.2 mi SSE 12.7 mph - N/A   Mostly Cloudy
6:00 AM 49 °F - 46 °F 83% 29.68 in 10 mi SSE 12.7 mph - -   Scattered Clouds
6:50 AM 50.0 °F - 46.4 °F 87% 29.65 in 5.0 mi SSE 11.5 mph - N/A Rain Light Rain
7:00 AM 49 °F - 47 °F 90% 29.67 in 5 mi SSE 11.5 mph - - Rain Light Rain
7:50 AM 50.0 °F - 48.2 °F 94% 29.65 in 6.2 mi South 10.4 mph - N/A   Mostly Cloudy
8:00 AM 50 °F - 48 °F 90% 29.67 in 12 mi South 10.4 mph - - Rain Light Rain
8:50 AM 51.8 °F - 48.2 °F 88% 29.65 in 6.2 mi South 11.5 mph - N/A   Mostly Cloudy
9:00 AM 53 °F - 49 °F 80% 29.67 in 19 mi South 11.5 mph - -   Mostly Cloudy
9:50 AM 53.6 °F - 48.2 °F 82% 29.65 in 6.2 mi South 11.5 mph - N/A   Mostly Cloudy
10:00 AM 54 °F - 47 °F 72% 29.67 in 22 mi South 11.5 mph - -   Partly Cloudy
10:50 AM 57.2 °F - 46.4 °F 67% 29.65 in 6.2 mi South 13.8 mph - N/A   Mostly Cloudy
11:00 AM 57 °F - 46 °F 56% 29.67 in 25 mi South 13.8 mph - -   Mostly Cloudy
11:50 AM 57.2 °F - 44.6 °F 63% 29.65 in 6.2 mi SSW 12.7 mph - N/A   Mostly Cloudy
12:00 PM 57 °F - 44 °F 52% 29.67 in 19 mi SSW 12.7 mph - -   Partly Cloudy
12:50 PM 59.0 °F - 42.8 °F 55% 29.65 in 6.2 mi SSW 16.1 mph - N/A   Mostly Cloudy
1:00 PM 58 °F - 42 °F 45% 29.66 in 25 mi SSW 16.1 mph - - Rain Light Rain Showers
1:50 PM 59.0 °F - 42.8 °F 55% 29.65 in 6.2 mi SSW 17.3 mph - N/A   Mostly Cloudy
2:00 PM 59 °F - 42 °F 42% 29.65 in 25 mi SSW 17.3 mph - - Rain Light Rain Showers
2:50 PM 55.4 °F - 46.4 °F 72% 29.62 in 6.2 mi SW 13.8 mph - N/A   Scattered Clouds
3:00 PM 55 °F - 47 °F 65% 29.65 in 19 mi SW 13.8 mph - - Rain Light Rain Showers
3:50 PM 60.8 °F - 39.2 °F 45% 29.62 in 6.2 mi South 16.1 mph - N/A   Scattered Clouds
4:00 PM 60 °F - 40 °F 36% 29.64 in 25 mi South 16.1 mph - -   Partly Cloudy
4:50 PM 57.2 °F - 41.0 °F 55% 29.62 in 6.2 mi South 17.3 mph - N/A Rain Light Rain Showers
5:00 PM 57 °F - 40 °F 43% 29.64 in 16 mi South 17.3 mph - - Rain Light Rain Showers
5:50 PM 57.2 °F - 42.8 °F 59% 29.62 in 6.2 mi South 15.0 mph 26.5 mph N/A   Scattered Clouds
6:00 PM 57 °F - 42 °F 46% 29.64 in 19 mi South 15.0 mph - - Rain Light Rain Showers
6:50 PM 55.4 °F - 41.0 °F 58% 29.62 in 6.2 mi South 13.8 mph - N/A   Partly Cloudy
7:00 PM 55 °F - 41 °F 48% 29.63 in 31 mi South 13.8 mph - -   Partly Cloudy
7:50 PM 53.6 °F - 39.2 °F 58% 29.62 in 6.2 mi SSE 11.5 mph - N/A   Mostly Cloudy
8:00 PM 54 °F - 38 °F 44% 29.63 in 40 mi SSE 11.5 mph - -   Mostly Cloudy
8:50 PM 53.6 °F - 39.2 °F 58% 29.62 in 6.2 mi SSE 11.5 mph - N/A   Partly Cloudy
9:00 PM 53 °F - 39 °F 48% 29.63 in 37 mi SSE 11.5 mph - -   Scattered Clouds
9:50 PM 51.8 °F - 41.0 °F 67% 29.62 in 6.2 mi SSE 15.0 mph - N/A   Unknown
10:00 PM 51 °F - 41 °F 58% 29.62 in 31 mi SSE 15.0 mph - -  
10:50 PM 50.0 °F - 41.0 °F 71% 29.59 in 6.2 mi SE 10.4 mph - N/A   Partly Cloudy
11:00 PM 50 °F - 41 °F 63% 29.62 in 37 mi SE 10.4 mph - -   Scattered Clouds
11:50 PM 50.0 °F - 41.0 °F 71% 29.62 in 6.2 mi SE 9.2 mph - N/A   Unknown